Wind_Speed
13 7 16 23 15 11 12 13 13 14 10 18 17 12 12 6 6 7 8 7 6 6 8 4 6 6 8 10 11 12 12 12 15 20 17 22 25 25 24 27 28 21 24 24
10 10 11 14 14 16 7 12 16 3 12 9 11 14 13 9 10 9 8 8 7 4 5 8 8 5 7 10 10 11 14 15 17 18 22 18 22 25 28 26 29 29 23 22
9 4 7 11 12 13 14 12 13 6 5 3 3 8 11 7 3 2 3 5 5 5 5 7 8 7 6 9 7 9 10 12 13 9 12 17 14 19 16 22 24 26 27 31
5 4 11 6 9 16 11 9 8 10 6 3 8 3 14 15 5 5 6 6 6 5 5 5 8 7 8 6 5 6 7 8 14 16 14 13 14 12 20 20 19 19 18 21
3 3 8 5 7 12 4 7 8 8 7 1 8 1 2 12 7 6 8 7 6 5 7 7 6 6 7 6 7 7 7 5 4 6 9 14 17 18 20 16 17 17 18 21
4 2 2 2 4 6 6 8 9 2 1 2 7 6 4 7 12 10 8 8 7 6 6 6 6 4 7 7 8 8 8 7 6 6 6 7 11 16 17 15 14 15 14 13
3 2 4 2 6 2 6 9 3 2 2 4 2 6 5 12 13 9 8 9 7 7 6 5 6 6 7 8 10 10 10 9 8 8 8 7 7 9 11 13 13 13 12 15
2 2 2 3 1 5 3 2 3 5 5 4 2 5 4 8 12 9 8 8 6 6 6 5 5 6 9 10 12 12 11 10 9 9 9 10 9 8 7 8 9 9 10 12
4 1 1 4 2 2 3 3 2 3 3 4 5 3 3 2 9 8 8 7 7 6 5 5 6 9 9 9 10 10 10 9 10 9 9 9 9 9 8 8 7 7 7 8
6 4 2 3 2 4 1 3 2 1 2 3 4 6 4 11 12 9 8 7 7 5 6 5 6 8 7 7 7 8 9 9 9 9 9 8 9 10 10 9 11 9 10 10
4 3 5 8 6 8 3 1 2 2 1 1 2 3 4 15 12 9 8 7 7 6 5 4 6 6 5 6 7 9 10 10 11 10 11 10 10 9 8 8 8 8 7 8
4 4 3 2 2 2 3 3 7 3 3 2 3 2 7 10 9 7 7 6 6 5 4 5 5 3 6 6 7 8 9 10 10 10 10 10 9 8 7 9 9 9 9 7
3 2 3 2 1 2 2 3 3 5 3 2 2 3 8 9 8 5 6 8 7 6 5 5 5 5 6 6 5 7 9 9 9 8 9 10 10 10 11 10 9 10 11 11
5 1 1 1 3 3 3 6 6 5 3 3 4 4 7 11 8 7 8 6 7 6 6 4 4 7 7 6 5 7 8 8 9 9 10 11 11 11 12 11 12 13 13 14
3 1 3 2 2 2 4 5 7 6 5 4 2 2 11 8 7 6 7 6 6 4 5 4 2 5 6 6 7 7 7 7 8 9 10 10 10 10 11 11 11 13 15 17
2 1 3 3 1 3 4 7 8 8 9 9 7 7 5 4 6 6 7 7 5 4 4 4 4 5 6 7 5 6 8 8 8 9 9 8 10 9 11 10 11 15 17 19
5 4 2 1 2 4 6 12 13 7 7 10 9 8 3 4 4 4 4 7 6 6 6 6 5 6 8 6 5 9 7 5 7 7 7 9 8 10 11 13 16 21 21 22
4 5 2 2 2 1 5 3 3 14 9 9 6 8 5 5 6 5 3 4 7 7 6 5 7 9 7 6 6 8 6 7 6 7 7 7 9 13 14 16 19 20 19 20
1 4 3 2 4 6 6 4 3 6 9 12 12 7 6 5 4 3 6 3 5 6 7 9 10 10 7 6 7 9 8 7 7 8 9 9 12 16 16 18 18 17 18 18
1 2 2 2 1 3 3 4 1 2 2 4 9 7 6 6 2 2 7 6 6 8 10 11 10 8 7 5 7 10 9 8 9 9 11 11 14 15 17 16 15 16 16 16
3 3 4 4 2 5 5 6 1 2 3 5 5 2 3 4 2 5 8 6 10 10 9 12 12 9 8 8 8 11 10 9 11 12 13 14 14 15 14 13 13 13 11 11
7 5 4 4 3 7 4 2 1 3 4 5 3 2 2 7 7 6 6 6 7 9 10 11 11 10 9 8 12 14 12 12 13 14 15 13 12 10 10 9 8 7 7 6
4 4 4 6 4 3 5 4 4 3 3 3 4 4 3 5 5 7 6 6 8 11 12 11 14 10 8 11 13 15 16 15 14 11 10 10 10 9 7 8 7 5 4 5
5 4 2 3 5 7 6 6 4 2 4 5 5 3 1 3 7 8 7 6 6 10 12 13 15 11 11 12 15 16 18 15 12 11 10 9 9 8 6 5 5 4 4 3
3 5 6 5 6 3 4 6 8 6 4 3 5 3 2 2 5 7 6 7 9 12 14 17 17 13 13 15 17 17 15 14 13 12 11 10 9 8 8 7 4 2 2 2
4 4 4 4 2 2 2 6 6 4 2 3 1 2 4 3 4 7 7 13 14 15 16 17 17 15 16 17 16 18 17 16 16 14 13 11 10 9 6 6 5 4 2 1
Wind_Direction
173 157 198 192 192 203 207 194 234 202 177 190 214 212 231 219 175 233 253 262 263 219 224 178 45 344 309 296 290 276 270 254 233 240 246 217 219 230 240 243 231 229 237 230
149 202 194 187 193 229 243 243 216 247 151 189 201 225 230 226 196 209 236 260 260 292 40 65 40 351 296 287 282 266 256 261 251 243 240 248 233 234 244 250 250 246 236 234
146 133 180 196 207 222 231 250 188 153 122 317 302 246 218 233 207 32 347 290 315 23 30 59 80 65 51 32 340 294 274 270 266 266 257 253 263 237 237 240 246 250 255 246
138 133 171 172 239 214 216 232 171 126 131 218 185 252 209 201 174 202 214 206 172 134 99 77 75 68 64 33 18 16 347 298 270 268 278 273 281 265 237 243 252 258 261 264
44 133 168 165 267 231 233 116 92 126 198 92 197 268 209 150 195 195 187 140 128 123 130 125 111 108 96 50 29 23 23 18 340 292 277 274 274 279 280 281 252 249 261 268
49 45 74 166 299 317 234 107 85 79 197 242 210 196 208 176 192 174 149 148 155 147 118 113 125 89 74 42 27 20 14 26 20 6 342 293 280 278 284 290 281 264 268 270
136 33 337 96 174 207 230 124 124 166 202 230 265 190 267 190 159 155 153 151 147 160 104 73 64 23 37 27 17 10 9 3 9 9 2 349 324 304 298 301 306 316 296 276
71 359 311 344 132 183 217 174 170 196 185 162 43 222 305 110 129 135 121 119 137 114 102 84 57 37 33 24 15 5 1 359 9 8 4 2 9 21 12 359 351 339 328 326
162 145 156 261 174 272 147 213 351 313 230 106 192 146 24 77 111 124 146 169 152 135 116 88 51 55 35 26 15 8 9 11 17 12 6 6 352 347 339 323 318 329 319 319
156 114 128 144 237 349 125 220 145 313 152 219 202 174 206 184 163 169 153 182 150 142 105 81 77 66 45 41 27 31 29 32 29 22 19 22 22 19 15 12 18 356 335 321
172 109 173 161 201 165 160 228 275 276 266 168 141 252 201 173 164 169 163 142 145 128 96 81 82 72 73 60 46 44 37 39 33 32 37 39 38 31 36 33 21 9 16 9
15 95 161 139 44 328 313 185 182 162 190 112 171 275 130 149 156 136 134 135 127 116 114 104 100 87 86 66 52 50 41 39 32 34 41 39 33 30 30 25 18 18 15 15
160 154 110 167 180 175 227 244 301 79 22 235 119 251 113 101 105 149 160 159 162 152 148 153 145 120 97 75 59 58 50 41 38 42 47 48 43 36 33 35 34 36 35 33
331 152 15 143 132 117 189 198 194 116 136 195 217 143 155 161 162 199 156 158 157 157 142 120 135 137 125 112 79 68 56 45 43 48 51 50 47 48 41 39 49 50 50 54
339 163 31 32 77 143 195 210 202 170 217 164 344 209 195 171 191 204 118 121 121 149 147 133 143 124 117 106 88 75 64 52 48 49 52 54 47 52 60 53 54 64 74 77
106 119 74 299 141 279 260 249 221 203 217 260 275 287 300 284 115 127 173 154 170 175 168 166 155 150 125 108 102 86 69 52 55 61 60 58 61 61 68 75 80 89 91 88
156 128 126 254 186 293 285 225 212 195 191 200 214 217 311 116 145 119 131 161 188 172 172 183 157 127 110 117 106 80 76 74 66 63 63 70 76 85 86 96 98 91 90 90
188 142 134 226 180 292 221 74 204 205 201 211 216 226 218 162 138 141 175 172 168 153 155 140 141 126 127 118 107 113 88 82 90 89 84 94 107 104 105 101 96 95 93 89
320 150 185 188 210 274 151 179 174 158 234 212 209 246 280 111 108 213 147 97 106 134 136 131 106 108 116 125 132 118 106 105 106 99 104 111 113 111 110 102 99 97 96 91
226 354 145 72 264 256 110 150 17 162 164 21 181 219 195 120 179 204 133 124 110 113 123 127 136 140 142 139 136 130 117 123 118 120 117 118 119 119 111 108 106 102 91 86
190 194 195 229 253 296 138 128 59 214 136 88 69 75 157 157 181 126 119 125 141 140 134 137 143 147 136 132 138 127 135 136 141 137 131 125 121 119 114 107 98 96 97 95
182 184 186 201 196 260 126 84 193 131 104 92 75 116 144 119 131 136 141 141 131 133 139 150 142 136 133 147 145 137 143 147 145 138 134 125 120 121 119 114 113 119 115 108
196 203 179 190 217 159 183 116 124 129 108 106 85 100 95 131 166 164 165 161 162 160 164 157 145 136 166 165 164 155 156 157 147 144 144 136 129 129 134 130 124 125 121 118
223 238 168 144 257 203 187 153 141 124 134 127 109 91 135 196 173 181 163 167 163 160 164 160 151 165 176 171 168 167 164 159 158 157 156 155 148 145 142 139 137 130 113 122
186 165 186 251 284 250 195 195 161 141 152 148 131 162 214 259 186 167 171 174 174 175 177 174 169 173 181 174 173 174 175 172 178 170 166 167 162 163 153 144 129 162 145 152
182 191 186 216 43 116 126 77 86 114 85 41 49 181 193 215 247 166 172 174 177 178 183 182 177 174 184 183 184 185 186 183 180 175 178 179 178 180 182 165 144 132 124 113
Height
760 769 767 765 767 767 765 775 778 771 767 779 782 782 778 773 776 781 778 775 773 773 773 774 776 778 781 782 784 786 787 789 791 793 794 794 794 796 798 801 802 803 806 807
764 765 762 764 768 767 770 774 775 765 768 776 778 779 773 771 774 774 776 776 775 773 774 774 777 780 782 784 785 785 787 788 789 789 790 791 791 790 792 794 796 798 799 802
759 760 761 763 766 770 767 770 769 774 777 776 776 781 776 769 767 771 774 775 774 775 776 777 779 782 784 783 783 783 783 783 784 785 786 787 787 788 789 790 791 792 794 795
758 761 765 772 773 764 774 757 758 773 787 795 780 794 769 768 777 776 777 778 777 778 779 781 782 785 786 786 785 784 782 782 782 782 783 784 785 786 786 786 786 787 789 789
776 766 770 779 779 766 767 756 765 776 786 781 786 796 763 770 781 779 778 777 778 778 780 783 784 785 787 786 785 784 783 783 782 782 783 783 783 783 784 785 784 785 786 786
783 782 780 782 779 776 763 768 774 777 785 805 779 784 783 775 771 775 776 779 779 780 781 782 784 785 785 786 786 785 784 783 783 783 783 782 782 782 782 782 782 782 783 784
787 793 791 785 790 779 770 778 800 807 805 800 772 780 768 760 760 768 774 777 778 779 781 783 784 785 786 786 786 785 784 784 784 783 783 783 782 781 781 780 780 780 781 781
771 782 791 789 784 783 775 774 791 787 793 792 778 788 771 755 757 765 770 775 777 779 781 783 784 785 786 786 786 785 785 785 784 784 783 783 781 780 779 778 778 778 779 779
775 781 793 788 784 780 787 786 774 784 770 792 785 771 769 762 769 771 773 776 779 780 781 783 784 785 787 787 788 788 787 786 785 784 783 782 781 780 779 778 777 776 776 776
764 776 788 788 784 784 781 775 784 795 792 778 774 769 765 771 770 771 773 775 777 778 780 782 784 786 788 788 789 789 789 787 786 785 784 783 783 782 781 780 778 777 776 775
750 760 780 779 781 781 790 786 779 778 774 788 777 771 746 758 763 769 770 771 774 777 780 782 784 786 788 789 789 789 789 788 787 786 784 784 783 782 781 780 778 777 776 775
754 765 774 770 768 768 769 764 770 793 774 787 799 778 748 758 763 765 768 770 773 777 779 781 784 786 787 789 789 790 789 789 789 788 786 784 784 783 781 780 779 777 776 775
753 771 788 776 776 769 772 767 764 775 783 784 790 783 753 761 766 766 768 770 773 776 779 781 783 785 788 789 790 790 790 790 789 789 787 784 784 784 782 781 781 778 776 776
754 757 763 777 769 768 778 768 769 790 805 778 788 764 761 762 765 765 767 768 771 775 777 781 783 785 788 789 790 789 790 790 790 789 788 786 785 785 783 784 780 778 778 777
757 763 761 761 762 763 768 767 768 791 780 794 767 758 757 758 760 760 763 766 771 774 778 781 784 784 787 789 789 790 791 791 789 789 789 788 786 785 785 785 784 783 782 780
757 780 784 790 763 766 773 765 765 770 774 776 770 768 754 752 753 759 764 768 772 774 778 781 783 785 786 789 789 790 789 789 789 790 789 789 788 788 787 789 789 786 785 782
759 777 788 775 765 767 782 762 761 760 762 767 774 760 751 754 754 758 763 767 770 774 778 780 782 784 786 788 788 787 789 790 790 791 791 790 792 791 792 792 791 787 787 786
758 767 779 785 772 795 749 743 744 752 752 756 754 753 749 750 756 760 762 763 768 772 777 779 780 782 784 785 787 788 790 791 792 793 793 793 795 793 794 794 791 789 790 790
754 759 775 783 768 749 748 747 748 750 750 746 752 751 749 753 758 760 761 764 766 769 772 776 778 780 784 787 788 789 791 792 794 794 795 796 796 795 795 793 793 793 794 795
757 757 768 770 772 758 742 742 738 739 745 739 743 748 746 754 762 756 760 765 768 770 772 775 780 784 786 787 787 789 791 793 794 796 797 797 796 796 795 795 796 796 797 799
761 763 774 770 761 755 739 740 739 749 753 742 742 743 745 754 757 759 761 766 769 771 775 777 780 783 785 786 786 790 792 794 795 797 797 796 796 797 797 797 799 799 800 801
753 765 765 760 766 773 739 742 744 745 741 743 743 744 745 754 758 761 763 766 769 771 775 777 779 782 784 786 788 790 793 794 796 797 798 797 797 798 800 799 800 801 801 802
750 745 752 751 755 737 735 738 737 739 741 743 744 746 746 752 756 759 763 765 768 770 773 775 778 782 786 787 788 790 792 794 795 797 798 799 798 799 801 801 801 802 802 802
738 734 742 742 733 735 735 736 737 738 740 741 743 745 747 749 754 757 760 763 765 768 771 775 778 782 784 786 787 789 791 793 795 796 798 799 799 800 800 801 802 802 801 802
733 733 737 739 733 729 729 731 735 739 741 743 742 745 746 747 749 752 757 761 764 767 771 774 776 779 782 784 785 787 790 792 794 796 797 798 799 800 800 800 801 801 801 802
731 733 739 738 729 729 739 737 737 739 741 743 743 743 745 746 747 749 753 757 761 764 768 771 773 776 780 782 783 785 787 789 791 793 795 796 798 799 800 800 801 801 801 801